Pierpaolo Verdi

Recruteur - Monopoli
4 Avr 2028
Mardi
Processus

Personnalité

Adaptabilité (17) Ambition (7) Controverse (4) Loyauté (16) Pression (19) Professionnalisme (13) Sportivité (3) Tempérament (20)

Profil

Style d'entraînement Démocratique
Diplôme National A
Détermination 6
Gestion des joueurs 5
Motivation 9
Discipline 5
Satisfaction professionnelle
100%
Fatigue
0%
Rôle Recruteur
Salaire 12.0K p/s
Contrat 14.03.2030

Performance

Comportement Bon
Efficacité de l'entraînement
29%
Développement des joueurs
45%
Prévention des blessures
30%
Mise en place tactique
50%

Suivi en cours

121
Joueur Club Statut Capacité Confiance Observé Dernière observation Dernier vote
Stefano Greco Audace Cerignola Actif 98 / 109 40% 1 12.01.2028 -
Joaquín Mendive Tristán Suárez Actif 111 / 111 40% 1 12.01.2028 -
Galin Grigorov Septemvri Actif 91 / 118 40% 1 10.01.2028 -
Abdallah Warda Actif 93 / 93 66% 1 01.01.2028 Approuver
Wagner Freitas Ospitaletto Actif 93 / 94 44% 1 09.08.2027 -
Sergio Rodelas Granada Actif 108 / 113 40% 1 02.08.2027 -
Enzo Martínez Almagro Actif 113 / 110 40% 2 01.08.2027 -
Mehdi Boussaïd Pianese Actif 99 / 107 40% 2 01.08.2027 -
Ramiro Luna Quilmes Actif 118 / 107 40% 1 01.08.2027 -
Matteo Stoppa Campobasso Actif 124 / 120 40% 1 01.08.2027 -
Ronaldo Peña Deportivo Lara Actif 91 / 118 40% 2 31.07.2027 -
Jonathan Cañete Portuguesa Actif 93 / 123 40% 5 31.07.2027 -
Johan Campaña Patriotas Actif 130 / 102 40% 2 31.07.2027 -
Nicolás Previtali Atlanta Actif 115 / 103 40% 1 31.07.2027 -
Nicola Dalmonte Trento Actif 96 / 110 40% 1 31.07.2027 -
Gonzalo Berterame Morón Actif 134 / 124 40% 1 31.07.2027 -
Ibrahima Mbaye Altamura Actif 111 / 106 40% 4 30.07.2027 -
Giuseppe Panico Foggia Actif 123 / 108 40% 4 30.07.2027 -
Federico Casolari Cittadella Actif 102 / 120 40% 1 30.07.2027 -
Juan Pablo De la Reta Maipú Actif 133 / 122 40% 2 29.07.2027 -
Brian Farioli Estudiantes Actif 111 / 111 40% 2 29.07.2027 -
Ronan Curtis Plymouth Argyle Actif 114 / 111 40% 3 29.07.2027 -
Brian Guerra Chaco For Ever Actif 119 / 97 40% 1 29.07.2027 -
Emanuele Cicerelli Catania Actif 106 / 123 40% 3 28.07.2027 -
Destiny Efosa Egharevba Picerno Actif 116 / 98 40% 2 28.07.2027 -
Lautaro Disanto Defensores Unidos Actif 102 / 126 40% 2 28.07.2027 -
Tomás González Estudiantes Actif 128 / 96 40% 1 28.07.2027 -
Francesco Petito Dolomiti Bellunesi Actif 90 / 107 40% 4 27.07.2027 -
Leonardo Capezzi Sorrento Actif 123 / 110 40% 9 27.07.2027 -
Axel Batista Quilmes Actif 125 / 126 40% 2 27.07.2027 -
Cheickna Samaké Djoliba Actif 120 / 102 40% 2 27.07.2027 -
Luis Olivera Defensores Unidos Actif 114 / 109 40% 1 27.07.2027 -
Michele Rocca Lumezzane Actif 103 / 97 40% 1 27.07.2027 -
Manuele Malotti Livorno Actif 103 / 109 40% 1 26.07.2027 -
Ilario Iotti Pro Vercelli Actif 91 / 96 40% 1 26.07.2027 -
Matías Viguet Maipú Actif 94 / 102 40% 1 26.07.2027 -
Mario Gargiulo Campobasso Actif 111 / 105 40% 2 25.07.2027 -
Davide Balestrero Union Brescia Actif 114 / 113 40% 2 24.07.2027 -
Davide Vitturini Guidonia Montecelio Actif 107 / 106 40% 1 24.07.2027 -
Tiago Casasola Union Brescia Actif 130 / 125 40% 6 23.07.2027 -
Bilal Erradi Potenza Actif 100 / 100 40% 3 23.07.2027 -
Simone Saporetti Novara Actif 89 / 96 40% 1 23.07.2027 -
Juan Yangali San Telmo Actif 124 / 100 40% 1 23.07.2027 -
Giuseppe Guadagni Picerno Actif 91 / 114 40% 1 23.07.2027 -
Nicolò Contiliano Cosenza Actif 92 / 102 40% 2 22.07.2027 -
Richard Figueroa Deportivo Lara Actif 118 / 98 40% 1 22.07.2027 -
Enzo Trinidad Colegiales Actif 99 / 113 40% 1 22.07.2027 -
Nicolás Barrientos All Boys Actif 103 / 97 40% 2 21.07.2027 -
Gastón Mansilla Maipú Actif 93 / 113 40% 1 20.07.2027 -
Michele Cavion Vicenza Actif 120 / 105 40% 1 20.07.2027 -
Emanuele Anastasia Cittadella Actif 106 / 110 40% 1 20.07.2027 -
Franco Zicarelli Colegiales Actif 96 / 92 40% 1 19.07.2027 -
Salvatore Aloi Catania Actif 104 / 100 40% 3 18.07.2027 -
Alejo Dramisino Atlanta Actif 116 / 110 40% 1 18.07.2027 -
Robert Murić Floriana Actif 111 / 103 40% 2 17.07.2027 -
Álvaro Veliez San Martín Actif 95 / 106 40% 1 17.07.2027 -
Marco Garetto Ternana Actif 112 / 105 40% 1 17.07.2027 -
Michael Craig Leyton Orient Actif 111 / 106 40% 1 16.07.2027 -
Claud Adjapong Potenza Actif 94 / 96 40% 2 15.07.2027 -
Edoardo Duca Ravenna Actif 120 / 115 40% 1 15.07.2027 -
Stefan Lončar Akron Actif 127 / 120 40% 1 14.07.2027 -
Nicolás Schiavi Carrarese Actif 121 / 124 40% 5 13.07.2027 -
Maxime Giron Foggia Actif 95 / 99 40% 5 11.07.2027 -
Samuele Parlati Alcione Milano Actif 92 / 96 40% 2 11.07.2027 -
Roberto Zammarini Giugliano Actif 116 / 95 40% 1 11.07.2027 -
Agustín Bolívar Quilmes Actif 124 / 125 40% 1 11.07.2027 -
Bryan Nouvier Cavese Actif 114 / 105 40% 2 10.07.2027 -
Gabriele Perretta Forli Actif 110 / 108 40% 3 09.07.2027 -
Alfredo Bifulco Campobasso Actif 109 / 104 40% 2 08.07.2027 -
Filippo Costa Vicenza Actif 127 / 115 40% 4 08.07.2027 -
Jérémie Broh Giugliano Actif 91 / 109 40% 1 08.07.2027 -
Lorenzo Di Livio Triestina Actif 94 / 110 40% 3 07.07.2027 -
Enzo González Defensores Actif 93 / 97 40% 1 06.07.2027 -
Lorenzo Paolucci Audace Cerignola Actif 100 / 100 40% 2 05.07.2027 -
Sebastián Jaurena San Martín SJ Actif 97 / 114 40% 1 05.07.2027 -
Ilja Safronov Rotor Actif 92 / 100 40% 1 05.07.2027 -
Armando Anastasio Salernitana Actif 116 / 118 40% 1 04.07.2027 -
Giacomo Zecca Torres Actif 118 / 111 40% 1 04.07.2027 -
Niko Kirwan Potenza Actif 109 / 112 40% 1 03.07.2027 -
Georgi Tunjov Pro Patria Actif 108 / 108 40% 2 02.07.2027 -
Lorenzo Venuti Sampdoria Actif 125 / 120 40% 1 02.07.2027 -
Bojan Roganović Torpedo Moscow Actif 88 / 93 40% 1 02.07.2027 -
Luca Maiorano Ospitaletto Actif 114 / 111 40% 1 01.07.2027 -
Keita Baldé Monza Actif 115 / 128 40% 3 29.06.2027 -
Federico Versaci Talleres Actif 100 / 125 40% 1 29.06.2027 -
Brando Moruzzi Catania Actif 104 / 113 40% 2 27.06.2027 -
Rodrigo Mosqueira Agropecuario Argentino Actif 106 / 101 40% 1 27.06.2027 -
Ernesto Matteazzi Salernitana Actif 115 / 100 40% 1 27.06.2027 -
Đorđe Pantelić Spartak Kostroma Actif 128 / 108 40% 3 26.06.2027 -
Matías Bergara Nueva Chicago Actif 113 / 112 40% 1 24.06.2027 -
Mattia Maita Benevento Actif 129 / 121 40% 2 21.06.2027 -
Darko Todorović Fakel Actif 139 / 100 40% 1 20.06.2027 -
Gianluca Germinario Pineto Actif 111 / 113 40% 2 19.06.2027 -
Michele Emmausso Cosenza Actif 107 / 100 40% 1 19.06.2027 -
Patrick Ciurria Monza Actif 137 / 119 40% 2 18.06.2027 -
Matteo Borsoi Pineto Actif 96 / 95 40% 1 18.06.2027 -
Lautaro Montoya Gimnasia y Tiro Actif 93 / 117 40% 1 17.06.2027 -
Pietro Martino Casertana Actif 113 / 98 40% 1 17.06.2027 -
Manu Justo Cultural Leonesa Actif 112 / 112 40% 1 16.06.2027 -
Nicola Murru Gubbio Actif 94 / 112 40% 1 16.06.2027 -
Loris Zonta Vicenza Actif 97 / 115 40% 1 16.06.2027 -
José Álvarez Arsenal Tula Actif 96 / 102 40% 1 15.06.2027 -
Danilo Bulevardi Hamrun Spartans Actif 108 / 111 40% 1 15.06.2027 -
Luca Bacchin Perugia Actif 89 / 110 40% 1 14.06.2027 -
Niccolò Chiorra Casarano Actif 121 / 115 40% 1 14.06.2027 -
Ciro Loreto Cavese Actif 95 / 93 40% 1 13.06.2027 -
Christian D'Urso Triestina Actif 100 / 105 40% 1 12.06.2027 -
Samuele Damiani Ascoli Actif 91 / 107 40% 1 10.06.2027 -
Marco Da Graca Novara Actif 97 / 100 40% 1 09.06.2027 -
Zak Ruggiero Crotone Actif 106 / 102 40% 1 09.06.2027 -
Clemente Perotti Pro Vercelli Actif 108 / 103 40% 1 08.06.2027 -
Stefano Scognamillo Benevento Actif 108 / 115 40% 2 31.01.2027 -
David Karaev KAMAZ Actif 115 / 107 40% 1 30.01.2027 -
Phakamani Mahlambi Bidvest Wits Actif 109 / 110 40% 1 30.01.2027 -
Olivier Verdon Ludogorets Actif 118 / 125 40% 1 26.01.2027 -
Pablo Vitali Pontedera Actif 98 / 113 40% 1 25.01.2027 -
Michael De Marchi Pergolettese Actif 112 / 102 40% 1 24.01.2027 Plus d'infos
Giacomo Parigi Latina Actif 96 / 111 40% 1 24.01.2027 -
Alexandr Saplinov Volga Actif 95 / 93 40% 1 23.01.2027 -
Marlon Shakhtar Actif 138 / 138 40% 2 18.01.2027 -
Hamza Issah Hearts of Oak Actif 79 / 96 40% 1 16.01.2027 -